Flag Weather past 2 weeks in Boa Vista, Roraima, Brazil

Now
77 °F

Passing clouds.


Feels Like: 78 °F
Forecast: 72 / 89 °F
Wind: 1 mph from East

Location: Boa Vista Aeropor-To

Current Time: Nov 23, 2014 at 9:29:43 PM

Latest Report: Nov 23, 2014 at 9:00 PM


Visibility: N/A

Pressure: 29.83 "Hg

Humidity: 89%

Dew point: 73 °F

Location of Boa VistaLocation

Historic Weather in Boa Vista — Graph

°F

Boa Vista temperature yesterday

Maximum temperature yesterday: 90 °F (at 3:00 PM)
Minimum temperature yesterday: 73 °F (at 5:00 AM)
Average temperature yesterday: 80 °F

Past Weeks' High & Low Weather Summary

 TemperatureHumidityPressure
High93 °F (Nov 9, 2:00 PM)100% (Nov 14, 9:00 AM)29.98 "Hg (Nov 14, 9:00 AM)
Low36 °F (Nov 16, 10:00 PM)39% (Nov 9, 3:00 PM)29.62 "Hg (Nov 13, 4:00 PM)
Average79 °F74%29.82 "Hg
* Reported Nov 8 8:00 PM — Nov 23 8:00 PM, Boa Vista, Weather by CustomWeather, © 2014

Note: Actual official high and low records may vary slightly from our data, if they occured in-between our weather recording intervals... More about our weather records

Advertising

Boa Vista weather history for previous 24 hours

 ConditionsComfort  
Time TempWeatherWind HumidityBarometerVisibility
8:00 PM
Nov 23
79 °FPassing clouds.2 mph84%29.80 "HgN/A
7:00 PM79 °FPassing clouds.3 mph79%29.77 "HgN/A
6:00 PM79 °FPartly cloudy.2 mph79%29.77 "HgN/A
5:00 PM77 °FScattered showers. Broken clouds.6 mph89%N/AN/A
4:00 PM84 °FScattered showers. Scattered clouds.7 mph66%29.77 "HgN/A
3:00 PM84 °FScattered showers. Scattered clouds.8 mph66%29.80 "HgN/A
2:00 PM82 °FScattered showers. Broken clouds.7 mph66%N/AN/A
1:00 PM81 °FBroken clouds.6 mph74%29.86 "HgN/A
12:00 PM79 °FBroken clouds.6 mph74%29.89 "HgN/A
11:00 AM77 °FBroken clouds.6 mph83%29.92 "HgN/A
10:00 AM73 °FBroken clouds.9 mph89%29.92 "HgN/A
9:00 AM73 °FBroken clouds.9 mph94%29.95 "HgN/A
8:00 AM72 °FBroken clouds.6 mph100%29.92 "HgN/A
7:00 AM72 °FScattered showers. Broken clouds.3 mph94%29.89 "HgN/A
6:00 AM72 °FBroken clouds.2 mph94%29.86 "HgN/A
5:00 AM72 °FPassing clouds.5 mph94%29.83 "HgN/A
4:00 AM72 °FThundershowers. Passing clouds.8 mph94%N/AN/A
3:00 AM72 °FThundershowers. Passing clouds.No wind100%N/AN/A
2:00 AM72 °FStrong thunderstorms. Passing clouds.2 mph94%29.86 "Hg1 mi
1:00 AM72 °FThunderstorms. Passing clouds.7 mph94%29.86 "Hg2 mi
12:00 AM73 °FThunderstorms. Passing clouds.9 mph94%29.86 "HgN/A
11:00 PM
Nov 22
75 °FThunderstorms. Passing clouds.2 mph89%29.86 "HgN/A
10:00 PM73 °FThunderstorms. Partly cloudy.2 mph94%29.86 "HgN/A
9:00 PM75 °FThunderstorms. Partly cloudy.No wind89%29.83 "HgN/A
Weather by CustomWeather, © 2014

See weather overviewHow to use our weather pages